When you browse on this site, cookies collect data to enhance your experience and personalize the content and advertising you see.
Visit our Privacy Policy to learn more. By continuing to use the site, you agree to this use of cookies and data.
  • In Schweiz
  • Länderverzeichnis
  • Für 7 Tage
  • Wassertemperatur
  • Satellitenkarten
  • Wetterkarte
  • Widgets
  • user-avatar
    Anmelden

    Stündliche Wetter Tolna

    Heute, 19 Februar, Dienstag

    Zeit Temperatur Niederschläge Wind Luftdruck Luftfeuchtigkeit
    00:00 +6°C° 0 mm 2 m/S 757 mmHg 66%
    01:00 +6°C° 0 mm 2 m/S 757 mmHg 68%
    02:00 +6°C° 0 mm 2 m/S 757 mmHg 70%
    03:00 +5°C° 0 mm 2 m/S 757 mmHg 71%
    04:00 +5°C° 0 mm 2 m/S 757 mmHg 73%
    05:00 +5°C° 0 mm 2 m/S 757 mmHg 75%
    06:00 +4°C° 0 mm 2 m/S 757 mmHg 77%
    07:00 +4°C° 0 mm 2 m/S 757 mmHg 79%
    08:00 +6°C° 0 mm 2 m/S 757 mmHg 72%
    09:00 +7°C° 0 mm 2 m/S 757 mmHg 66%
    10:00 +9°C° 0 mm 2 m/S 757 mmHg 60%
    11:00 +10°C° 0 mm 2 m/S 757 mmHg 55%
    12:00 +13°C° 0 mm 2 m/S 756 mmHg 50%
    13:00 +14°C° 0 mm 2 m/S 756 mmHg 45%
    14:00 +14°C° 0 mm 2 m/S 756 mmHg 45%
    15:00 +14°C° 0 mm 2 m/S 755 mmHg 45%
    16:00 +14°C° 0 mm 2 m/S 755 mmHg 45%
    17:00 +13°C° 0 mm 2 m/S 755 mmHg 51%
    18:00 +10°C° 0 mm 2 m/S 755 mmHg 56%
    19:00 +9°C° 0 mm 2 m/S 756 mmHg 61%
    20:00 +8°C° 0 mm 2 m/S 756 mmHg 63%
    21:00 +8°C° 0 mm 2 m/S 756 mmHg 66%
    22:00 +7°C° 0 mm 2 m/S 756 mmHg 68%
    23:00 +7°C° 0 mm 2 m/S 756 mmHg 68%

    Morgen, 20 Februar, Mittwoch

    Zeit Temperatur Niederschläge Wind Luftdruck Luftfeuchtigkeit
    00:00 +6°C° 0 mm 2 m/S 756 mmHg 68%
    01:00 +6°C° 0 mm 2 m/S 756 mmHg 68%
    02:00 +6°C° 0 mm 2 m/S 756 mmHg 68%
    03:00 +6°C° 0 mm 2 m/S 756 mmHg 69%
    04:00 +6°C° 0 mm 2 m/S 756 mmHg 69%
    05:00 +5°C° 0 mm 3 m/S 757 mmHg 70%
    06:00 +4°C° 0 mm 3 m/S 757 mmHg 71%
    07:00 +4°C° 0 mm 3 m/S 758 mmHg 72%
    08:00 +6°C° 0 mm 4 m/S 758 mmHg 69%
    09:00 +7°C° 0 mm 4 m/S 759 mmHg 66%
    10:00 +9°C° 0 mm 5 m/S 759 mmHg 63%
    11:00 +10°C° 0 mm 5 m/S 759 mmHg 56%
    12:00 +12°C° 0 mm 5 m/S 759 mmHg 50%
    13:00 +12°C° 0 mm 4 m/S 759 mmHg 43%
    14:00 +12°C° 0 mm 4 m/S 759 mmHg 43%
    15:00 +12°C° 0 mm 4 m/S 759 mmHg 44%
    16:00 +12°C° 0 mm 3 m/S 759 mmHg 44%
    17:00 +11°C° 0 mm 3 m/S 759 mmHg 49%
    18:00 +10°C° 0 mm 2 m/S 759 mmHg 53%
    19:00 +9°C° 0 mm 1 m/S 760 mmHg 57%
    20:00 +9°C° 0 mm 1 m/S 760 mmHg 59%
    21:00 +8°C° 0 mm 1 m/S 760 mmHg 60%
    22:00 +8°C° 0 mm 1 m/S 761 mmHg 62%
    23:00 +8°C° 0 mm 1 m/S 761 mmHg 63%

    übermorgen, 21 Februar, Donnerstag

    Zeit Temperatur Niederschläge Wind Luftdruck Luftfeuchtigkeit
    00:00 +6°C° 0 mm 2 m/S 761 mmHg 65%
    01:00 +6°C° 0 mm 2 m/S 761 mmHg 66%
    02:00 +6°C° 0 mm 2 m/S 761 mmHg 68%
    03:00 +5°C° 0 mm 2 m/S 761 mmHg 71%
    04:00 +5°C° 0 mm 2 m/S 761 mmHg 73%
    05:00 +5°C° 0 mm 2 m/S 761 mmHg 76%
    06:00 +5°C° 0 mm 2 m/S 762 mmHg 78%
    07:00 +5°C° 0 mm 2 m/S 762 mmHg 81%
    08:00 +6°C° 0 mm 2 m/S 762 mmHg 73%
    09:00 +8°C° 0 mm 3 m/S 762 mmHg 66%
    10:00 +10°C° 0 mm 3 m/S 762 mmHg 58%
    11:00 +11°C° 0 mm 3 m/S 762 mmHg 56%
    12:00 +12°C° 0 mm 4 m/S 762 mmHg 53%
    13:00 +13°C° 0 mm 4 m/S 762 mmHg 51%
    14:00 +13°C° 0 mm 4 m/S 761 mmHg 52%
    15:00 +13°C° 0 mm 3 m/S 761 mmHg 53%
    16:00 +13°C° 0 mm 3 m/S 760 mmHg 54%
    17:00 +12°C° 0 mm 3 m/S 760 mmHg 58%
    18:00 +11°C° 0 mm 3 m/S 760 mmHg 63%
    19:00 +10°C° 0 mm 3 m/S 760 mmHg 67%
    20:00 +10°C° 0.4 mm 3 m/S 761 mmHg 71%
    21:00 +9°C° 0.4 mm 3 m/S 761 mmHg 75%
    22:00 +9°C° 0.4 mm 3 m/S 761 mmHg 80%
    23:00 +8°C° 0 mm 4 m/S 760 mmHg 80%

    22 Februar, Freitag

    Zeit Temperatur Niederschläge Wind Luftdruck Luftfeuchtigkeit
    00:00 +7°C° 0 mm 4 m/S 760 mmHg 81%
    01:00 +7°C° 0 mm 4 m/S 760 mmHg 82%
    02:00 +7°C° 0.1 mm 5 m/S 760 mmHg 81%
    03:00 +7°C° 0.1 mm 6 m/S 759 mmHg 80%
    04:00 +6°C° 0.1 mm 7 m/S 759 mmHg 78%
    05:00 +8°C° 0.3 mm 7 m/S 759 mmHg 79%
    06:00 +7°C° 0.3 mm 8 m/S 759 mmHg 79%
    07:00 +7°C° 0.3 mm 8 m/S 759 mmHg 79%
    08:00 +7°C° 0.1 mm 9 m/S 759 mmHg 74%
    09:00 +8°C° 0.1 mm 9 m/S 759 mmHg 70%
    10:00 +9°C° 0.1 mm 10 m/S 759 mmHg 65%
    11:00 +11°C° 0 mm 10 m/S 759 mmHg 61%
    12:00 +11°C° 0 mm 10 m/S 759 mmHg 57%
    13:00 +12°C° 0 mm 10 m/S 759 mmHg 54%
    14:00 +11°C° 0.1 mm 10 m/S 759 mmHg 54%
    15:00 +11°C° 0.1 mm 9 m/S 760 mmHg 55%
    16:00 +10°C° 0.1 mm 9 m/S 760 mmHg 55%
    17:00 +7°C° 0.1 mm 9 m/S 761 mmHg 54%
    18:00 +5°C° 0.1 mm 8 m/S 763 mmHg 53%
    19:00 +4°C° 0.1 mm 8 m/S 764 mmHg 51%
    20:00 +1°C° 0 mm 8 m/S 765 mmHg 49%
    21:00 0°C° 0 mm 9 m/S 766 mmHg 48%
    22:00 -3°C° 0 mm 9 m/S 767 mmHg 46%
    23:00 -3°C° 0 mm 9 m/S 768 mmHg 46%

    23 Februar, Samstag

    Zeit Temperatur Niederschläge Wind Luftdruck Luftfeuchtigkeit
    00:00 -4°C° 0 mm 9 m/S 768 mmHg 47%
    01:00 -5°C° 0 mm 8 m/S 769 mmHg 47%
    02:00 -5°C° 0 mm 8 m/S 769 mmHg 45%
    03:00 -4°C° 0 mm 7 m/S 769 mmHg 43%
    04:00 -4°C° 0 mm 7 m/S 770 mmHg 41%
    05:00 -6°C° 0 mm 7 m/S 770 mmHg 40%
    06:00 -6°C° 0 mm 7 m/S 770 mmHg 39%
    07:00 -6°C° 0 mm 7 m/S 771 mmHg 38%
    08:00 -4°C° 0 mm 7 m/S 771 mmHg 35%
    09:00 -3°C° 0 mm 7 m/S 771 mmHg 31%
    10:00 -2°C° 0 mm 7 m/S 771 mmHg 28%
    11:00 -1°C° 0 mm 7 m/S 771 mmHg 28%
    12:00 +1°C° 0 mm 6 m/S 771 mmHg 28%
    13:00 +1°C° 0 mm 6 m/S 770 mmHg 28%
    14:00 +1°C° 0 mm 5 m/S 770 mmHg 28%
    15:00 +1°C° 0 mm 5 m/S 770 mmHg 29%
    16:00 +1°C° 0 mm 5 m/S 769 mmHg 29%
    17:00 +1°C° 0 mm 3 m/S 769 mmHg 32%
    18:00 +1°C° 0 mm 2 m/S 769 mmHg 35%
    19:00 +1°C° 0 mm 1 m/S 769 mmHg 39%
    20:00 +2°C° 0 mm 1 m/S 769 mmHg 39%
    21:00 +2°C° 0 mm 1 m/S 769 mmHg 39%
    22:00 +2°C° 0 mm 1 m/S 769 mmHg 39%
    23:00 +2°C° 0 mm 1 m/S 768 mmHg 39%

    24 Februar, Sonntag

    Zeit Temperatur Niederschläge Wind Luftdruck Luftfeuchtigkeit
    00:00 +2°C° 0 mm 1 m/S 768 mmHg 40%
    01:00 +2°C° 0 mm 1 m/S 768 mmHg 41%
    02:00 +1°C° 0 mm 1 m/S 768 mmHg 41%
    03:00 +1°C° 0 mm 1 m/S 768 mmHg 41%
    04:00 0°C° 0 mm 1 m/S 767 mmHg 41%
    05:00 0°C° 0 mm 1 m/S 767 mmHg 41%
    06:00 0°C° 0 mm 1 m/S 768 mmHg 41%
    07:00 0°C° 0 mm 1 m/S 768 mmHg 40%
    08:00 -1°C° 0 mm 2 m/S 768 mmHg 37%
    09:00 +2°C° 0 mm 2 m/S 768 mmHg 34%
    10:00 +3°C° 0 mm 2 m/S 768 mmHg 31%
    11:00 +3°C° 0 mm 3 m/S 768 mmHg 32%
    12:00 +4°C° 0 mm 3 m/S 767 mmHg 32%
    13:00 +5°C° 0 mm 3 m/S 767 mmHg 33%
    14:00 +5°C° 0 mm 4 m/S 767 mmHg 36%
    15:00 +6°C° 0 mm 4 m/S 767 mmHg 38%
    16:00 +6°C° 0 mm 4 m/S 766 mmHg 41%
    17:00 +5°C° 0 mm 3 m/S 766 mmHg 46%
    18:00 +4°C° 0 mm 2 m/S 766 mmHg 51%
    19:00 +3°C° 0 mm 2 m/S 766 mmHg 56%
    20:00 +4°C° 0 mm 1 m/S 766 mmHg 58%
    21:00 +3°C° 0 mm 1 m/S 766 mmHg 61%
    22:00 +3°C° 0 mm 1 m/S 766 mmHg 63%
    23:00 +3°C° 0 mm 1 m/S 766 mmHg 66%
    Mehr zeigen